Total_Precipitation_Accumulation
0.52 0.51 0.49 0.43 0.40 0.40 0.40 0.41 0.43 0.44 0.45 0.48 0.51 0.53 0.54 0.55 0.56 0.59 0.59 0.64 0.70 0.75 0.79 0.91 1.00 1.03 1.07 1.11 1.20 1.29 1.44 1.57 1.44 1.22 1.17 1.22 1.28 1.25 1.09 0.90 0.75 0.69 0.59
0.65 0.71 0.78 0.78 0.71 0.62 0.47 0.43 0.46 0.51 0.52 0.52 0.55 0.56 0.53 0.56 0.64 0.71 0.70 0.74 0.80 0.81 0.82 0.85 0.84 0.89 1.00 1.02 1.08 1.12 1.23 1.43 1.39 1.30 1.33 1.37 1.39 1.33 1.25 1.07 0.88 0.77 0.71
0.93 1.08 1.21 1.21 1.03 0.80 0.60 0.50 0.50 0.54 0.57 0.58 0.63 0.71 0.73 0.73 0.73 0.78 0.84 0.86 0.79 0.75 0.75 0.75 0.72 0.74 0.79 0.88 0.99 0.97 0.99 1.12 1.26 1.33 1.43 1.50 1.57 1.46 1.28 1.15 1.02 0.93 0.74
0.81 1.02 1.16 1.21 1.02 0.81 0.65 0.56 0.49 0.47 0.50 0.55 0.63 0.74 0.84 0.89 0.91 0.87 0.82 0.80 0.75 0.70 0.65 0.61 0.63 0.66 0.68 0.73 0.83 0.88 0.90 0.99 1.12 1.21 1.38 1.58 1.61 1.65 1.52 1.31 1.21 1.15 0.91
0.56 0.71 0.84 0.95 0.80 0.58 0.46 0.40 0.38 0.42 0.49 0.60 0.72 0.81 0.95 1.01 0.95 0.91 0.82 0.77 0.74 0.66 0.58 0.53 0.52 0.50 0.53 0.60 0.62 0.69 0.77 0.87 0.91 1.00 1.15 1.39 1.53 1.64 1.60 1.41 1.27 1.29 1.16
0.50 0.59 0.67 0.71 0.61 0.46 0.33 0.30 0.33 0.39 0.46 0.54 0.61 0.68 0.71 0.66 0.67 0.63 0.58 0.55 0.56 0.52 0.49 0.49 0.45 0.40 0.43 0.44 0.42 0.48 0.56 0.63 0.73 0.87 0.95 1.14 1.35 1.45 1.57 1.65 1.52 1.37 1.32
0.58 0.55 0.61 0.66 0.59 0.47 0.33 0.29 0.32 0.39 0.47 0.50 0.49 0.52 0.52 0.51 0.42 0.36 0.34 0.34 0.39 0.41 0.43 0.45 0.36 0.31 0.37 0.41 0.39 0.35 0.37 0.40 0.47 0.66 0.79 0.89 1.12 1.33 1.52 1.68 1.68 1.61 1.51
0.56 0.57 0.66 0.73 0.68 0.57 0.48 0.43 0.45 0.48 0.49 0.49 0.48 0.47 0.51 0.47 0.36 0.28 0.25 0.24 0.29 0.32 0.38 0.43 0.44 0.39 0.39 0.43 0.44 0.39 0.34 0.33 0.35 0.41 0.52 0.68 0.95 1.32 1.54 1.60 1.73 1.77 1.73
0.59 0.66 0.70 0.79 0.82 0.76 0.75 0.75 0.75 0.72 0.65 0.60 0.55 0.53 0.55 0.54 0.43 0.30 0.26 0.27 0.33 0.34 0.38 0.43 0.48 0.47 0.45 0.36 0.39 0.40 0.38 0.38 0.32 0.36 0.42 0.54 0.72 0.99 1.39 1.53 1.57 1.52 1.48
0.68 0.76 0.81 0.91 0.97 0.90 0.89 0.91 0.90 0.92 0.84 0.76 0.68 0.68 0.69 0.72 0.64 0.41 0.34 0.36 0.42 0.48 0.57 0.58 0.50 0.45 0.41 0.35 0.38 0.44 0.41 0.37 0.40 0.41 0.42 0.43 0.49 0.65 0.94 1.19 1.24 1.21 1.12
0.63 0.70 0.82 1.01 1.11 1.12 1.15 1.17 1.13 1.10 1.04 0.96 0.85 0.82 0.86 0.89 0.80 0.50 0.40 0.43 0.50 0.60 0.63 0.65 0.60 0.49 0.37 0.34 0.36 0.43 0.42 0.43 0.55 0.58 0.56 0.55 0.58 0.61 0.69 0.87 1.05 1.10 1.03
0.63 0.71 0.89 1.05 1.07 1.10 1.28 1.32 1.28 1.26 1.18 1.10 1.02 0.93 0.91 0.92 0.79 0.58 0.43 0.47 0.58 0.69 0.71 0.71 0.71 0.54 0.40 0.36 0.35 0.36 0.37 0.39 0.49 0.58 0.57 0.53 0.54 0.55 0.58 0.72 0.91 1.02 1.08
0.74 0.81 0.92 0.99 1.09 1.21 1.32 1.36 1.36 1.33 1.23 1.12 1.08 1.03 1.01 1.07 0.99 0.62 0.50 0.54 0.61 0.68 0.72 0.70 0.66 0.55 0.44 0.40 0.43 0.42 0.38 0.40 0.48 0.55 0.56 0.48 0.46 0.52 0.64 0.79 0.92 1.04 1.09
0.81 0.84 0.92 1.01 1.05 1.17 1.32 1.29 1.23 1.21 1.23 1.20 1.15 1.10 1.08 1.12 1.11 0.90 0.73 0.74 0.76 0.78 0.76 0.75 0.67 0.63 0.55 0.51 0.53 0.48 0.43 0.49 0.54 0.55 0.59 0.61 0.61 0.65 0.70 0.77 0.87 0.96 1.02
0.85 0.82 0.84 0.90 0.99 1.13 1.22 1.29 1.22 1.16 1.03 1.01 1.01 1.03 1.01 1.04 1.06 0.93 0.87 0.95 1.03 1.04 0.98 0.97 0.90 0.83 0.73 0.66 0.67 0.67 0.67 0.70 0.66 0.66 0.72 0.78 0.78 0.72 0.70 0.75 0.88 0.92 0.88
0.98 0.94 0.92 0.93 0.97 1.02 1.10 1.10 0.98 0.86 0.73 0.67 0.66 0.67 0.65 0.67 0.74 0.70 0.68 0.79 0.90 0.97 0.96 0.96 0.95 0.90 0.83 0.82 0.85 0.85 0.82 0.82 0.79 0.80 0.83 0.88 0.90 0.83 0.77 0.78 0.87 0.91 0.85
1.04 1.03 1.01 0.94 0.96 1.02 1.07 1.11 1.08 0.92 0.75 0.62 0.53 0.47 0.47 0.51 0.60 0.62 0.65 0.75 0.85 0.92 0.91 0.92 0.90 0.90 0.86 0.87 0.90 0.90 0.86 0.86 0.90 0.92 0.93 0.95 0.99 0.99 0.95 0.89 0.87 0.91 0.90
1.01 0.99 0.97 0.95 0.93 0.96 1.00 1.02 1.08 1.12 1.02 0.85 0.65 0.51 0.45 0.45 0.50 0.58 0.66 0.77 0.88 0.90 0.88 0.91 0.91 0.91 0.90 0.88 0.87 0.89 0.91 0.95 0.94 0.92 0.94 0.96 1.02 1.02 1.04 0.97 0.89 0.85 0.87
0.96 0.94 0.91 0.92 0.93 0.92 0.96 0.98 1.00 1.07 1.07 1.02 0.88 0.70 0.57 0.50 0.50 0.60 0.65 0.73 0.89 0.94 0.94 0.93 0.90 0.86 0.85 0.87 0.87 0.86 0.86 0.87 0.89 0.94 0.93 0.93 0.99 0.98 0.93 0.90 0.89 0.87 0.87
0.97 0.89 0.84 0.85 0.90 0.91 0.93 0.96 0.95 1.01 1.03 1.03 0.94 0.77 0.64 0.54 0.56 0.61 0.66 0.79 0.95 0.98 0.94 0.89 0.88 0.83 0.83 0.85 0.87 0.85 0.84 0.85 0.89 0.97 0.97 0.95 0.95 0.91 0.85 0.84 0.88 0.88 0.85
0.96 0.87 0.75 0.74 0.77 0.82 0.87 0.89 0.89 0.92 0.93 0.95 0.85 0.66 0.55 0.52 0.59 0.67 0.77 0.89 0.99 0.94 0.89 0.86 0.85 0.80 0.78 0.78 0.78 0.79 0.81 0.85 0.87 0.91 0.94 0.95 0.96 0.92 0.85 0.84 0.87 0.91 0.91
0.98 0.90 0.78 0.67 0.66 0.72 0.78 0.83 0.86 0.86 0.86 0.86 0.78 0.59 0.50 0.48 0.55 0.63 0.71 0.81 0.87 0.86 0.84 0.82 0.78 0.72 0.70 0.71 0.73 0.79 0.82 0.83 0.87 0.92 0.94 0.95 0.99 0.94 0.92 0.89 0.87 0.89 0.93
0.90 0.84 0.75 0.59 0.58 0.64 0.72 0.82 0.83 0.78 0.80 0.80 0.71 0.59 0.53 0.55 0.57 0.63 0.70 0.74 0.76 0.80 0.79 0.74 0.68 0.65 0.64 0.66 0.68 0.74 0.78 0.82 0.83 0.86 0.87 0.89 0.94 0.94 0.94 0.90 0.85 0.87 0.88
0.76 0.77 0.73 0.56 0.53 0.66 0.75 0.81 0.78 0.71 0.73 0.72 0.62 0.58 0.55 0.58 0.59 0.60 0.64 0.67 0.70 0.70 0.69 0.66 0.59 0.55 0.55 0.59 0.63 0.64 0.67 0.68 0.69 0.73 0.74 0.78 0.83 0.87 0.89 0.87 0.85 0.86 0.90
0.71 0.70 0.73 0.62 0.54 0.63 0.73 0.77 0.74 0.68 0.64 0.58 0.53 0.53 0.54 0.53 0.55 0.58 0.61 0.67 0.68 0.64 0.60 0.57 0.58 0.58 0.57 0.56 0.58 0.60 0.60 0.54 0.52 0.57 0.62 0.68 0.71 0.79 0.80 0.78 0.80 0.85 0.89
0.70 0.69 0.72 0.69 0.62 0.63 0.70 0.73 0.71 0.63 0.56 0.50 0.48 0.49 0.51 0.52 0.54 0.56 0.58 0.61 0.63 0.64 0.62 0.61 0.59 0.56 0.53 0.49 0.46 0.48 0.46 0.41 0.40 0.45 0.50 0.58 0.65 0.71 0.73 0.73 0.72 0.78 0.82